www.pogodaiklimat.ru
ПОГОДА в Потсдаме
Время
(UTC), дата
01 16.10
02 16.10
03 16.10
04 16.10
05 16.10
06 16.10
07 16.10
08 16.10
09 16.10
10 16.10
11 16.10
12 16.10
13 16.10
14 16.10
15 16.10
16 16.10
17 16.10
18 16.10
19 16.10
20 16.10
21 16.10
22 16.10
23 16.10
00 17.10
01 17.10
02 17.10
03 17.10
04 17.10
05 17.10
06 17.10
07 17.10
08 17.10
09 17.10
10 17.10
11 17.10
12 17.10
13 17.10
14 17.10
15 17.10
16 17.10
17 17.10
18 17.10
19 17.10
20 17.10
21 17.10
22 17.10
23 17.10
00 18.10
01 18.10
02 18.10
03 18.10
04 18.10
05 18.10
06 18.10
07 18.10
08 18.10
09 18.10
10 18.10
11 18.10
12 18.10
13 18.10
14 18.10
15 18.10
16 18.10
17 18.10
18 18.10
19 18.10
20 18.10
21 18.10
22 18.10
23 18.10
00 19.10
01 19.10
02 19.10
03 19.10
04 19.10
05 19.10
06 19.10
07 19.10
09 19.10
12 19.10
13 19.10
14 19.10
15 19.10
16 19.10
17 19.10
18 19.10
19 19.10
20 19.10
21 19.10
22 19.10
23 19.10
00 20.10
01 20.10
02 20.10
03 20.10
04 20.10
05 20.10
06 20.10
07 20.10
08 20.10
09 20.10
10 20.10
11 20.10
12 20.10
13 20.10
14 20.10
15 20.10
16 20.10
17 20.10
18 20.10
19 20.10
20 20.10
21 20.10
22 20.10
23 20.10
00 21.10
01 21.10
02 21.10
03 21.10
04 21.10
05 21.10
06 21.10
07 21.10
08 21.10
09 21.10
10 21.10
11 21.10
12 21.10
13 21.10
14 21.10
15 21.10
16 21.10
17 21.10
18 21.10
19 21.10
20 21.10
21 21.10
22 21.10
23 21.10
00 22.10
01 22.10
02 22.10
03 22.10
04 22.10
05 22.10
06 22.10
07 22.10
08 22.10
09 22.10
10 22.10
11 22.10
12 22.10
13 22.10
14 22.10
15 22.10
16 22.10
17 22.10
18 22.10
19 22.10
20 22.10
21 22.10
22 22.10
23 22.10
00 23.10
01 23.10
Ветер
(напр.,м/с)
Видим. Явления Облачность Т
(С)
Тd
(С)
f
(%)
Тe
(С)
Тes
(С)
Комфортность P
(гПа)
Po
(гПа)
Тmin
(С)
Tmax
(С)
R
(мм)
R24
(мм)
S
(см)
С 4 23 км 9/9 210 м +8.9 +8.4 97 +6 +6 1019.6 1007.4
С 4 30 км 10/10 210 м +8.5 +8.0 97 +5 +5 1019.4 1007.2
С 4 40 км 6/6 150 м +7.7 +7.1 96 +4 +4 1019.3 1007.1
С 4 45 км 9/9 1500 м
[Sc]
+7.6 +6.9 95 +4 +4 1019.4 1007.2
С 4 45 км 9/9 1500 м
[Sc]
+7.6 +6.9 95 +4 +4 1019.5 1007.3
С 4 40 км 10/10 1500 м
[Sc]
+7.6 +7.0 96 +4 +4 1019.7 1007.5 +7.4 +9.3 0.7
С 3 45 км 10/10 1470 м +8.0 +7.2 95 +5 +5 1020.0 1007.8
С 4 45 км в посл. час ливневой дождь 9/9 240 м
[Cu Sc]
+8.6 +7.3 92 +5 +5 1020.2 1008.0
С 3 50 км в посл. час ливневой дождь 9/9 300 м
[Cu Sc]
+9.6 +7.6 87 +7 +7 1020.1 1008.0 0.0
С 4 50 км 8/8 330 м
[Cu med, cong Ci fib]
+10.2 +7.5 83 +8 +8 1020.1 1008.0
С 4 50 км 9/9 450 м
[Cu Sc]
+10.8 +7.3 79 +8 +9 1020.0 1007.9
С 4 35 км слаб. ливневой дождь 10/10 330 м
[Cu Sc]
+10.1 +8.0 87 +7 +7 1019.7 1007.6 0.0
С 4 9000 м дождь {ливн. дождь} 10/9 270 м
[Frnb]
+9.5 +8.5 93 +7 +7 1019.5 1007.4
СВ 4 11 км слаб. дождь 10/10 360 м
[Cu Sc]
+9.3 +7.5 89 +6 +6 1019.4 1007.3
СВ 3 9000 м в посл. час дождь {ливн. дождь} 10/10 270 м
[Cu Sc]
+9.1 +7.6 90 +7 +7 1019.2 1007.1 0.1
С 3 40 км в посл. час морось {дымка} 9/9 180 м +8.5 +7.7 95 +6 +6 1019.4 1007.2
С 2 50 км в посл. час морось 9/9 210 м +8.2 +7.4 95 +6 +6 1019.6 1007.4
С 3 40 км слаб. дождь 9/9 600 м +8.1 +7.3 95 +5 +5 1019.9 1007.7 +7.6 +11.1 0.1
С 3 50 км в посл. час дождь {морось} 10/10 1170 м +8.1 +7.0 93 +5 +5 1019.9 1007.7
СЗ 2 50 км в посл. час дождь 10/10 1410 м +7.8 +6.7 93 +6 +6 1019.9 1007.7
СЗ 3 45 км {дождь, морось} 10/10 1000 м +7.6 +6.7 94 +5 +5 1019.7 1007.5 0.1
СЗ 2 40 км в посл. час дождь {морось} 10/10 1080 м +7.7 +6.8 94 +6 +6 1019.5 1007.3
С 2 40 км 10/10 300 м +7.8 +7.1 95 +6 +6 1019.5 1007.3
СЗ 3 45 км {дождь, морось} 10/10 200 м +7.7 +7.1 96 +5 +5 1019.2 1007.0 0.1
С 2 29 км 10/10 180 м +7.7 +7.0 95 +5 +5 1018.9 1006.7
С 3 35 км 10/10 120 м +7.7 +7.1 96 +5 +5 1018.5 1006.3
С 2 23 км 10/10 90 м +7.7 +7.1 96 +5 +5 1018.4 1006.2
С 1 6000 м дымка 10/10 60 м
[St]
+7.6 +7.1 97 +7 +7 1018.5 1006.3
С 1 4500 м в посл. час дождь 10/9 60 м
[St]
+7.7 +7.3 97 +7 +7 1018.5 1006.3
С 1 3500 м дымка {дождь} 10/9 50 м
[St]
+7.8 +7.3 97 +7 +7 1018.6 1006.4 +7.6 +8.1 0.1
С 1 3500 м в посл. час морось 9/9 90 м
[Sc]
+8.0 +7.4 96 +7 +7 1018.8 1006.6
СВ 2 7000 м дымка 8/8 150 м
[Cu Sc Ac trans]
+8.8 +7.4 91 +7 +7 1019.0 1006.8
СВ 1 24 км {морось} 5/4 300 м
[Cu med, cong Ac trans]
+9.5 +7.2 86 +9 +11 1018.9 1006.8 0.0
СВ 1 35 км 6/5 600 м
[Cu med, cong Ac trans]
+10.0 +5.4 73 +10 +12 1019.0 1006.9
С 1 40 км 4/3 750 м
[Cu med, cong Ac lent]
+11.1 +5.2 67 +11 +14 1018.8 1006.7
СВ 2 45 км {морось} 6/5 930 м
[Cu Sc Ac lent]
+12.0 +2.9 54 +11 +13 1018.4 1006.4
СЗ 2 50 км 9/9 1050 м
[Cu Sc]
+11.7 +4.2 60 +11 +11 1018.1 1006.1
СЗ 2 50 км 9/9 900 м
[Cu Sc]
+11.1 +5.8 70 +10 +10 1018.1 1006.0
СЗ 2 50 км 9/9 900 м
[Cu Sc]
+10.8 +5.4 69 +10 +10 1018.0 1005.9
СЗ 2 50 км 10/10 1500 м +9.8 +6.1 78 +8 +8 1017.9 1005.8
З 2 40 км 10/10 1320 м +9.0 +6.6 85 +7 +7 1018.0 1005.9
З 3 30 км в посл. час дождь {морось} 10/10 600 м +8.6 +6.9 89 +6 +6 1018.2 1006.0 +7.8 +12.3 0.0
З 4 30 км 10/0 2000 м +8.8 +7.3 90 +6 +6 1018.1 1006.0
З 4 35 км 10/0 2000 м +8.6 +7.2 91 +5 +5 1018.3 1006.1
З 4 35 км 10/10 1500 м +8.3 +6.9 91 +5 +5 1018.3 1006.1
З 3 23 км 5/5 1380 м +7.3 +6.7 96 +4 +4 1018.0 1005.8
З 4 15 км 3/3 1500 м +6.5 +6.1 97 +3 +3 1018.0 1005.8
З 4 7000 м дымка 9/9 100 м +6.5 +6.2 98 +3 +3 1017.7 1005.5
З 4 7000 м дымка 9/9 90 м +6.0 +5.7 98 +2 +2 1017.6 1005.3
З 4 3100 м дымка 9/9 60 м +5.8 +5.7 99 +2 +2 1017.4 1005.1
З 5 4800 м дымка 9/9 90 м +5.7 +5.5 99 +1 +1 1017.3 1005.0
ЮЗ 6 10 км 6/6 120 м
[Sc]
+5.7 +5.5 99 +1 +1 1016.8 1004.5
ЮЗ 6 9000 м 9/9 120 м
[Sc]
+6.4 +5.9 97 +2 +2 1016.4 1004.2
З 7 7000 м дымка 9/9 200 м
[Sc]
+6.9 +6.2 95 +2 +2 1016.5 1004.3 +5.5 +8.8
З 7 9000 м 9/9 300 м
[Sc]
+7.3 +6.1 92 +2 +2 1016.9 1004.7
З 7 12 км 9/9 360 м
[Cu Sc]
+7.7 +5.9 88 +3 +3 1017.2 1005.0
З 7 16 км 9/9 300 м
[Cu Sc]
+8.5 +5.5 81 +4 +4 1017.2 1005.0
З 7 14 км слаб. дождь 10/9 540 м
[Cu Sc]
+9.1 +6.2 82 +5 +5 1017.1 1005.0
З 7 8000 м слаб. морось {дождь} 10/10 270 м
[Sc]
+8.3 +7.3 93 +4 +4 1017.4 1005.2
З 6 6000 м слаб. морось {дождь} 10/9 240 м
[Frnb]
+8.5 +7.5 93 +4 +4 1017.2 1005.1 0.0
З 5 9000 м в посл. час морось 10/10 240 м
[Sc]
+8.8 +8.1 95 +5 +5 1017.2 1005.1
З 6 3500 м дождь {морось} 10/4 240 м
[Frnb As op]
+8.6 +7.9 95 +4 +5 1017.3 1005.2
З 6 18 км слаб. дождь {морось} 9/8 240 м
[Sc Ci fib]
+7.8 +7.5 98 +3 +3 1017.3 1005.1 3
З 6 7000 м в посл. час дождь 9/0 2000 м +8.2 +7.8 97 +4 +4 1017.5 1005.3
З 5 14 км в посл. час дождь {морось} 9/9 1500 м +8.2 +7.6 96 +4 +4 1018.2 1006.0
З 5 23 км в посл. час дождь {морось} 9/9 1000 м +7.7 +7.1 96 +4 +4 1018.6 1006.4 +6.9 +9.2 3
З 5 8000 м 10/0 +6.8 +6.6 99 +2 +2 1018.9 1006.7
З 4 10 км 8/0 2000 м +6.6 +6.4 99 +3 +3 1019.4 1007.1
З 5 22 км 10/10 1500 м +7.2 +7.0 99 +3 +3 1019.7 1007.5
З 4 20 км 10/10 1500 м +7.1 +6.8 98 +3 +3 1019.9 1007.7
З 5 23 км 10/10 1500 м +7.3 +7.0 98 +3 +3 1020.2 1008.0
З 5 27 км 10/10 1000 м +7.5 +7.0 97 +3 +3 1020.5 1008.3 0.0
З 4 17 км слаб. дождь 9/9 1200 м +7.4 +6.9 97 +4 +4 1020.8 1008.6
З 4 8000 м в посл. час дождь {морось} 10/10 210 м +7.3 +7.0 98 +4 +4 1020.8 1008.6
З 4 9000 м {дождь, морось} 9/9 240 м +6.9 +6.6 98 +3 +3 1021.0 1008.7 0.1
З 4 25 км в посл. час дождь 6/6 150 м
[Cu Sc]
+6.7 +6.4 98 +3 +3 1021.1 1008.8
ЮЗ 3 8000 м 9/9 1080 м
[Sc]
+6.8 +6.5 98 +4 +4 1021.4 1009.1
З 3 8000 м в посл. час дождь {морось} 5/5 1000 м
[Sc]
+6.4 +6.1 98 +3 +3 1021.6 1009.3 +6.4 +7.6 0.1
ЮЗ 3 8000 м 8/8 120 м
[Sc]
+6.5 +6.3 99 +3 +3 1022.2 1009.9
ЮЗ 3 18 км 9/9 200 м
[Cu Sc]
+8.7 +7.8 94 +6 +6 1022.6 1010.4
З 4 40 км 9/9 900 м
[Cu Sc]
+10.6 +5.8 72 +8 +9 1022.4 1010.3
З 3 40 км 9/9 1000 м
[Cu Sc]
+10.4 +5.0 69 +9 +9 1022.4 1010.3
ЮЗ 1 35 км 9/9 1000 м
[Cu Sc]
+10.1 +6.8 80 +10 +10 1022.3 1010.2
Ю 2 40 км 8/8 1380 м
[Cu Sc]
+10.0 +7.1 82 +9 +9 1022.1 1010.0
Ю 1 55 км 10/10 1000 м +9.4 +6.5 82 +9 +9 1022.3 1010.1
ЮВ 3 50 км 10/10 1170 м +9.0 +6.2 83 +7 +7 1022.5 1010.3
ЮВ 3 60 км 4/0 2000 м +7.9 +5.8 87 +5 +5 1022.1 1009.9 +6.0 +11.3
Ю 4 16 км 3/0 +6.9 +6.1 95 +3 +3 1022.2 1009.9
Ю 4 9000 м 9/0 +6.6 +6.1 97 +3 +3 1022.2 1009.9
Ю 4 8000 м 10/0 +6.4 +6.0 97 +2 +2 1022.3 1010.0
Ю 4 8000 м 10/0 +6.2 +5.8 97 +2 +2 1022.1 1009.8
Ю 4 6000 м дымка 10/0 +5.7 +5.3 97 +2 +2 1021.7 1009.4
Ю 4 9000 м 10/0 +5.1 +4.7 97 +1 +1 1021.7 1009.3
Ю 4 9000 м 10/0 +4.6 +4.1 97 0 0 1021.0 1008.6
ЮВ 5 6000 м дымка 10/0 +4.0 +3.7 98 -1 -1 1020.7 1008.3
ЮВ 4 5000 м дымка 10/0 +3.6 +3.3 98 -1 -1 1020.2 1007.8
ЮВ 4 20 км 6/0
[Ci fib]
+3.7 +3.4 98 -1 -1 1019.9 1007.5
ЮВ 5 15 км 6/0
[Ci fib]
+3.0 +2.7 98 -3 -3 1018.7 1006.3
ЮВ 4 8000 м 9/0
[Ac und Ci]
+4.1 +3.5 96 -1 -1 1018.6 1006.2 +2.9 +7.9
ЮВ 4 9000 м 9/0
[Ac trans]
+4.7 +3.9 95 0 0 1018.5 1006.2
ЮВ 4 12 км 9/0
[Ac trans]
+5.5 +4.5 93 +1 +2 1017.6 1005.3
ЮВ 5 18 км 9/0
[Ac trans]
+7.3 +4.8 84 +3 +4 1017.1 1004.9
ЮВ 4 18 км 9/0
[Ac trans]
+8.6 +5.4 80 +6 +7 1016.3 1004.2
ЮВ 4 20 км 9/0
[Ac trans]
+9.8 +5.3 74 +7 +8 1015.6 1003.5
Ю 5 25 км 9/0
[Ac As]
+11.0 +6.2 72 +8 +9 1014.7 1002.7
Ю 5 28 км 9/0
[Ac trans Ci sp]
+11.4 +6.5 72 +9 +10 1013.9 1001.9
Ю 5 25 км 9/0
[Ac As]
+11.4 +6.4 71 +9 +9 1012.7 1000.7
Ю 5 22 км 9/0
[Ac As]
+10.9 +6.7 75 +8 +8 1012.4 1000.4
Ю 5 30 км 10/0 +10.1 +7.1 82 +7 +7 1011.9 999.9
Ю 4 35 км 10/0 +10.2 +7.4 83 +8 +8 1012.1 1000.1
Ю 5 16 км слаб. дождь {морось} 10/0 2000 м +10.4 +7.7 83 +7 +7 1012.3 1000.3 +4.1 +11.7 0.0
ЮЗ 5 10 км слаб. морось с дождем 9/9 800 м +9.7 +8.9 95 +6 +6 1012.5 1000.5
Ю 4 10 км слаб. дождь 10/10 1500 м +9.9 +9.3 96 +7 +7 1012.3 1000.3
ЮЗ 5 13 км слаб. дождь 10/10 1140 м +10.2 +9.7 97 +7 +7 1012.5 1000.5 1
Ю 4 5000 м слаб. морось с дождем 9/9 750 м +10.1 +9.7 97 +7 +7 1012.2 1000.2
Ю 4 8000 м слаб. дождь {морось} 10/0 2000 м +10.0 +9.6 97 +7 +7 1012.0 1000.0
Ю 4 4800 м слаб. дождь {морось} 9/0 +9.9 +9.5 97 +7 +7 1011.9 999.9 2
Ю 4 12 км слаб. морось с дождем 10/0 2000 м +10.0 +9.4 96 +7 +7 1011.5 999.5
Ю 4 9000 м слаб. дождь {морось} 10/10 1500 м +9.9 +9.4 97 +7 +7 1011.4 999.4
Ю 5 10 км слаб. дождь {морось} 10/10 1110 м +9.7 +9.1 96 +6 +6 1011.3 999.3 2
Ю 5 12 км слаб. дождь 10/10 1500 м
[Sc]
+9.4 +8.9 97 +6 +6 1010.6 998.6
Ю 4 18 км в посл. час дождь 10/10 2000 м
[Sc]
+9.4 +8.8 96 +6 +6 1010.4 998.4
Ю 3 10 км слаб. дождь {морось} 10/10 1500 м
[Sc]
+9.4 +8.9 97 +7 +7 1010.2 998.2 +9.3 +10.4 4
Ю 4 12 км слаб. дождь 10/10 2000 м
[Sc]
+9.5 +9.1 97 +6 +6 1010.5 998.5
Ю 4 10 км дождь 10/10 2000 м
[Sc]
+9.9 +9.2 95 +7 +7 1010.5 998.5
Ю 3 10 км дождь 10/9 2000 м
[Sc]
+10.4 +9.1 92 +8 +8 1010.4 998.4 0.2
ЮВ 4 10 км 10/0 2000 м +10.8 +9.5 92 +8 +9 1009.6 997.6
Ю 4 10 км 10/10 1500 м
[Sc]
+11.2 +9.7 90 +9 +9 1009.4 997.5
Ю 6 15 км слаб. дождь 10/9 1500 м
[Sc]
+12.0 +9.5 85 +9 +9 1009.0 997.1 0.1
Ю 5 26 км в посл. час дождь 10/9 2000 м
[Sc]
+12.5 +9.3 81 +10 +10 1008.5 996.6
Ю 4 25 км слаб. дождь 10/3 1500 м
[Sc As op]
+13.2 +10.2 82 +11 +12 1008.1 996.3
Ю 5 28 км в посл. час дождь 9/4 2000 м
[Sc Ac As]
+13.0 +10.3 84 +11 +11 1007.6 995.8 0.0
ЮВ 4 20 км в посл. час дождь 10/0 +12.4 +9.7 84 +10 +10 1007.2 995.3
Ю 5 35 км 9/0 +12.2 +9.1 81 +10 +10 1007.0 995.1
Ю 6 29 км {дождь} 8/0 +12.5 +8.8 78 +10 +10 1007.0 995.1 +9.4 +13.4 0.3
Ю 6 30 км 9/0 +12.4 +8.8 79 +10 +10 1007.3 995.4
Ю 6 35 км 9/0 +12.5 +8.7 78 +10 +10 1007.5 995.6
Ю 7 35 км 10/0 +13.7 +8.4 70 +11 +11 1007.6 995.8
ЮЗ 6 35 км 5/0 +14.4 +8.4 67 +13 +13 1008.0 996.2
ЮЗ 7 35 км 9/0 +14.1 +8.7 70 +12 +12 1008.0 996.2
ЮЗ 7 35 км 5/0 +15.2 +9.5 69 +13 +13 1008.3 996.5
ЮЗ 7 40 км 9/0 +14.7 +9.3 70 +13 +13 1008.7 996.9
ЮЗ 6 40 км 10/0 +14.3 +9.3 72 +12 +12 1008.8 997.0
ЮЗ 7 35 км 10/0 +14.6 +9.7 72 +13 +13 1009.3 997.5
ЮЗ 6 40 км 9/0
[Ac trans Cs]
+14.5 +10.0 74 +13 +13 1009.8 998.0
ЮЗ 6 35 км 9/0
[Ac trans Cs]
+14.0 +10.5 79 +12 +12 1010.4 998.6
ЮЗ 5 35 км 6/1 2000 м
[Sc Ac lent Ci sp]
+13.4 +10.5 83 +11 +11 1011.0 999.1 +12.0 +15.7
ЮЗ 5 35 км 8/4 1080 м
[Sc Ac lent Ci sp]
+13.7 +10.6 82 +12 +12 1012.1 1000.2
ЮЗ 5 35 км 6/1 1200 м
[Sc Ac lent Ci]
+13.7 +11.0 84 +12 +12 1012.8 1000.9
ЮЗ 5 40 км 6/0
[Ac lent Ci sp]
+15.3 +11.3 77 +14 +15 1013.2 1001.4
ЮЗ 5 40 км 5/0
[Ac trans Ci sp]
+16.4 +12.1 76 +15 +17 1013.7 1001.9
ЮЗ 6 40 км 8/0
[Ac und Ci sp]
+17.8 +12.2 70 +17 +18 1013.4 1001.7
ЮЗ 5 45 км 9/0
[Ac und]
+17.5 +12.5 72 +17 +18 1013.2 1001.5
ЮЗ 4 45 км 9/0
[Ac As]
+16.7 +12.5 76 +16 +17 1012.6 1000.9
ЮЗ 4 45 км 6/3 2000 м
[Sc Ac trans Ci sp]
+17.2 +12.9 76 +17 +17 1012.5 1000.8
ЮЗ 4 40 км 3/1 1500 м
[Sc Ac lent Ci sp]
+17.1 +13.1 77 +17 +17 1012.3 1000.6
Ю 5 30 км 4/0 +15.6 +13.2 86 +14 +14 1012.4 1000.6
Ю 5-7
{8}
30 км ясно +15.1 +12.5 84 +14 +14 1012.2 1000.4
Ю 6 30 км 5/0 +14.8 +12.5 86 +13 +13 1012.2 1000.4 +13.1 +18.3
ЮЗ 5 35 км 10/0 +14.8 +12.1 84 +13 +13 1012.2 1000.4
ЮЗ 5 40 км 5/0 +15.0 +11.5 80 +14 +14 1012.0 1000.2
Ю 6 35 км 3/0 +14.0 +11.2 83 +12 +12 1012.3 1000.5
ЮЗ 6 35 км 8/8 1440 м +14.3 +11.5 83 +12 +12 1012.4 1000.6
ЮЗ 5 27 км слаб. дождь {морось} 10/0 2000 м +13.7 +11.9 89 +12 +12 1012.3 1000.4
ЮЗ 6 30 км в посл. час дождь {морось} 10/0 +13.6 +11.9 89 +11 +11 1012.3 1000.4 0.0
ЮЗ 5 35 км 10/0 +13.3 +11.6 89 +11 +11 1012.4 1000.5
Местоположение метеостанции Потсдам (Германия): широта 52.38 долгота 13.07 высота над уровнем моря 100 м.
В архиве по умолчанию представлена погода в Потсдаме за последнюю неделю. Архивные данные за месяц целиком и за предыдущие месяцы, начиная с января 2011 года, Вы можете получить, выбрав интересующий диапазон дат из раскрывающегося списка и нажав кнопку "Найти!".
*Определитесь, кто Вы:
Внимание! Время в таблицах - всемирное. Для получения местного времени необходимо прибавить поправку, которая равна 1 ч.
Смотрите также архив погоды в соседних городах и на ближайших метеорологических станциях:
Партнеры нашего сайта:      
Пояснения к столбцам:
  • Ветер - указаны скорость ветра в м/с - средняя за 10 мин, порывы в срок и между сроками (в фигурных скобках) и направление, откуда дует ветер: С - северный,
  • СВ - северо-восточный, В - восточный, ЮВ - юго-восточный, Ю - южный, ЮЗ - юго-западный, З - западный, СЗ - северо-западный.
  • Видимость - горизонтальная дальность видимости в метрах или километрах. При видимости от 1 до 10 км при отсутствии осадков обычно наблюдается дымка, при ухудшении видимости до 1 км и менее - туман. В сухую погоду видимость может ухудшаться дымом, пылью или мглою.
  • Явления - указаны атмосферные явления, наблюдавшиеся в срок или в последний час перед сроком; фигурными скобками обозначены явления, наблюдавшиеся между сроками (за 1-3 часа до срока); квадратными скобками обозначены град или гололедные отложения с указанием их диаметра в мм.
  • Облачность - указаны через наклонную черту общая и нижняя облачность в баллах и высота нижней границы облаков в метрах; квадратными скобками обозначены формы облаков: Ci - перистые, Cs - перисто-слоистые, Cc - перисто-кучевые, Ac - высококучевые, As - высокослоистые, Sc - слоисто-кучевые, Ns - слоисто-дождевые, Cu - кучевые, Cb - кучево-дождевые. Подробнее классификацию облаков см. в Атласе облаков (PDF).
  • T - Температура воздуха - температура, измеренная на высоте 2 м над землей.
  • Td - Температура точки росы - температура, при понижении до которой содержащийся в воздухе водяной пар достигнет насыщения.
  • f - Относительная влажность воздуха - влажноcть воздуха, измеренная на высоте 2 м над землей.
  • Te - Эффективная температура - температура, которую ощущает одетый по сезону человек в тени. Характеристика душности погоды. При расчете учитывается влияние влажности воздуха и скорости ветра на теплоощущения человека.
  • Tes - Эффективная температура на солнце - температура, которую ощущает человек, с поправкой на солнечный нагрев. Характеристика знойности погоды. Зависит от высоты солнца над горизонтом, облачности и скорости ветра. Ночью, в пасмурную погоду, а также при ветре 12 м/с и более поправка равна нулю.
  • P - Атмосферное давление - приведенное к уровню моря атмосферное давление.
  • Po - Атмосферное давление - измеренное на уровне метеостанции атмосферное давление.
  • Tmin - Минимальная температура - минимум температуры воздуха на высоте 2 м над землей.
  • Tmax - Максимальная температура - максимум температуры воздуха на высоте 2 м над землей.
  • R - Количество осадков - Количество выпавших осадков за период времени, мм. При наведении курсора мыши на число - период времени, за который выпало указанное количество осадков.
  • R24 - Количество осадков - Количество выпавших осадков за 24 часа, мм.
  • S - Снежный покров - Высота снежного покрова, см. При наведении курсора мыши на число - состояние снежного покрова и степень покрытия местности в баллах.